User: anonymous   Login
Location: Passau
(48.5830°N, 13.4830°E)
Time: 21:46:36
(UTC+01:00)
Language:

LO-87 - Orbit

View from above orbital plane
View from above orbital plane
View from above satellite
View from above satellite

Ground track
Ground track

The orbit data is extracted from the following two-line orbital elements,

1 41557U 16033B   21335.49950407  .00004149  00000-0  14266-3 0  9997
2 41557  97.3928  68.6059 0012572   9.5927  46.0255 15.30584829307079
Epoch (UTC): 01 December 2021 11:59:17
Eccentricity: 0.0012572
inclination: 97.3928°
perigee height: 465 km
apogee height: 482 km
right ascension of ascending node: 68.6059°
argument of perigee: 9.5927°
revolutions per day: 15.30584829
mean anomaly at epoch: 46.0255°
orbit number at epoch: 30707

The dashed part of the orbit path shows where the satellite is in the earth's shadow,  

DLR